This is the latest recevied weather packets stored in our database for station/object AC1IX. If no packets are shown the sender has not sent any weather packets the latest 10 day(s).
| Time | Temp. | Humidity | Pressure | Rain* | Wind** | Luminosity | Snow |
|---|---|---|---|---|---|---|---|
| 1777993350 | 23.33° C | 52% | 1009.1 hPa | 0 mm | - | 307 W/m² | - |
| 1777993050 | 23.33° C | 52% | 1009.1 hPa | 0 mm | - | 420 W/m² | - |
| 1777992749 | 22.78° C | 53% | 1009 hPa | 0 mm | - | 686 W/m² | - |
| 1777992446 | 22.22° C | 53% | 1009.1 hPa | 0 mm | - | 315 W/m² | - |
| 1777992144 | 22.22° C | 52% | 1009.3 hPa | 0 mm | - | 254 W/m² | - |
| 1777991841 | 21.67° C | 54% | 1009.2 hPa | 0 mm | - | 367 W/m² | - |
| 1777991538 | 21.67° C | 55% | 1009.2 hPa | 0 mm | - | 317 W/m² | - |
| 1777991235 | 21.67° C | 54% | 1009.4 hPa | 0 mm | - | 212 W/m² | - |
| 1777990932 | 21.67° C | 58% | 1009.1 hPa | 0 mm | - | 220 W/m² | - |
| 1777990630 | 21.67° C | 55% | 1009.1 hPa | 0 mm | - | 223 W/m² | - |
| 1777990327 | 21.67° C | 55% | 1009.3 hPa | 0 mm | - | 258 W/m² | - |
| 1777990023 | 22.78° C | 52% | 1009 hPa | 0 mm | - | 274 W/m² | - |
| 1777989720 | 22.22° C | 54% | 1009.2 hPa | 0 mm | - | 623 W/m² | - |
| 1777989416 | 22.78° C | 55% | 1008.9 hPa | 0 mm | - | 604 W/m² | - |
| 1777989113 | 21.11° C | 64% | 1009.1 hPa | 0 mm | - | 758 W/m² | - |
| 1777988808 | 20.56° C | 60% | 1009.1 hPa | 0 mm | - | 468 W/m² | - |
| 1777988506 | 20.56° C | 60% | 1009.4 hPa | 0 mm | - | 184 W/m² | - |
| 1777988203 | 20.56° C | 58% | 1009.3 hPa | 0 mm | - | 219 W/m² | - |
| 1777987899 | 20.56° C | 63% | 1009.3 hPa | 0 mm | - | 540 W/m² | - |
| 1777987595 | 20° C | 60% | 1009.3 hPa | 0 mm | - | 576 W/m² | - |
| 1777987293 | 20° C | 62% | 1009.3 hPa | 0 mm | - | 504 W/m² | - |
| 1777986989 | 18.89° C | 63% | 1009.4 hPa | 0 mm | - | 429 W/m² | - |
| 1777986687 | 18.89° C | 67% | 1009.6 hPa | 0 mm | - | 186 W/m² | - |
| 1777986385 | 18.33° C | 72% | 1009.4 hPa | 0 mm | - | 430 W/m² | - |
| 1777986084 | 17.78° C | 69% | 1009.4 hPa | 0 mm | - | 380 W/m² | - |
* Rain latest hour (hover to see other rain measurements)
** Current wind speed in m/s (hover to see current wind gust speed)